User: anonymous   Login
Location: Unspecified
(0.0000°N, 0.0000°E)
Time: 21:33:00
(UTC+02:00)
Language:

YAOGAN 3 - Orbit

View from above orbital plane
View from above orbital plane
View from above satellite
View from above satellite

Ground track
Ground track

The orbit data is extracted from the following two-line orbital elements,

1 32289U 07055A   17235.40655808  .00000035  00000-0  11365-4 0  9993
2 32289  98.0013 237.2019 0001844  90.1360 270.0066 14.80829975528680
Epoch (UTC): 23 August 2017 09:45:26
Eccentricity: 0.0001844
inclination: 98.0013°
perigee height: 625 km
apogee height: 628 km
right ascension of ascending node: 237.2019°
argument of perigee: 90.1360°
revolutions per day: 14.80829975
mean anomaly at epoch: 270.0066°
orbit number at epoch: 52868

The dashed part of the orbit path shows where the satellite is in the earth's shadow,  

DLR